KJ7AZ-3 Weather Reports


time (UTC)temp
C
wind
direction
speed
KPH
gust
KPH
rain 1hr
cm
rain 24hr
cm
rain mn
cm
humidity
%
barometer
mb
20260831093314 18 101 0.0 0.0 0.00 0.00 0.00
20260831091814 19 101 0.0 0.0 0.00 0.00 0.00
20260831090314 19 101 0.0 0.0 0.00 0.00 0.00
20260831084813 20 101 0.0 0.0 0.00 0.00 0.00
20260831083313 20 101 0.0 0.0 0.00 0.00 0.00
20260831081813 20 101 0.0 0.0 0.00 0.00 0.00
20260831080314 20 101 0.0 0.0 0.00 0.00 0.00
20260831074812 20 101 0.0 0.0 0.00 0.00 0.00
20260831073312 20 101 0.0 0.0 0.00 0.00 0.00
20260831071812 21 226 0.0 0.0 0.00 0.00 0.00
20260831070311 21 226 0.0 0.0 0.00 0.00 0.00
20260831064812 20 226 0.0 0.0 0.00 0.00 0.00
20260831063311 20 226 0.0 0.0 0.00 0.00 0.00
20260831060310 21 226 0.0 0.0 0.00 0.00 0.00
20260831053312 20 73 0.0 0.0 0.00 0.00 0.00
20260831051810 21 73 0.0 0.0 0.00 0.00 0.00
20260831050309 22 136 0.0 0.0 0.00 0.00 0.00
20260831044808 22 136 0.0 0.0 0.00 0.00 0.00
20260831043307 23 136 0.0 0.0 0.00 0.00 0.00
20260831041806 24 339 1.6 0.0 0.00 0.00 0.00
20260831040306 24 226 0.0 0.0 0.00 0.00 0.00
20260831034805 25 226 0.0 0.0 0.00 0.00 0.00
20260831033305 25 152 0.0 0.0 0.00 0.00 0.00
20260831031804 25 322 0.0 0.0 0.00 0.00 0.00
20260831030304 25 339 6.4 1.6 0.00 0.00 0.00
20260831024803 24 294 1.6 0.0 0.00 0.00 0.00
20260831023303 24 122 0.0 0.0 0.00 0.00 0.00
20260831021802 25 122 0.0 0.0 0.00 0.00 0.00
20260831020302 24 97 0.0 0.0 0.00 0.00 0.00
20260831014801 25 94 1.6 1.6 0.00 0.00 0.00
20260831013300 25 117 0.0 0.0 0.00 0.00 0.00
20260831010259 26 98 3.2 3.2 0.00 0.00 0.00
20260831004758 27 117 3.2 0.0 0.00 0.00 0.00
20260831003257 23 129 4.8 6.4 0.00 0.00 0.00
20260831001757 23 139 1.6 4.8 0.00 0.00 0.00
20260831000256 30 87 11.3 14.5 0.00 0.00 0.00
20260830233253 33 342 3.2 6.4 0.00 0.00 0.00
20260830231752 36 44 1.6 0.0 0.00 0.00 0.00
20260830230251 35 322 1.6 9.7 0.00 0.00 0.00
20260830224751 34 352 3.2 3.2 0.00 0.00 0.00
20260830223249 36 264 4.8 6.4 0.00 0.00 0.00
20260830221748 34 8 1.6 1.6 0.00 0.00 0.00
20260830220247 37 338 6.4 11.3 0.00 0.00 0.00
20260830213246 35 20 0.0 0.0 0.00 0.00 0.00
20260830210243 37 288 4.8 6.4 0.00 0.00 0.00
20260830204742 36 32 9.7 9.7 0.00 0.00 0.00
20260830203241 35 23 3.2 0.0 0.00 0.00 0.00
20260830201740 35 338 0.0 0.0 0.00 0.00 0.00
20260830200240 33 295 4.8 0.0 0.00 0.00 0.00
20260830194738 35 354 1.6 0.0 0.00 0.00 0.00
20260830193237 34 186 3.2 1.6 0.00 0.00 0.00
20260830190235 33 256 3.2 8.0 0.00 0.00 0.00
20260830184735 32 219 3.2 1.6 0.00 0.00 0.00
20260830183234 32 291 1.6 0.0 0.00 0.00 0.00
20260830181733 31 359 3.2 0.0 0.00 0.00 0.00
20260830180232 32 207 3.2 0.0 0.00 0.00 0.00
20260830174732 31 293 3.2 4.8 0.00 0.00 0.00
20260830173231 32 336 0.0 0.0 0.00 0.00 0.00
20260830171730 31 288 4.8 9.7 0.00 0.00 0.00
20260830170230 30 218 3.2 1.6 0.00 0.00 0.00
20260830164729 30 332 3.2 0.0 0.00 0.00 0.00
20260830163228 29 326 1.6 3.2 0.00 0.00 0.00
20260830161729 30 228 1.6 0.0 0.00 0.00 0.00
20260830160229 29 288 6.4 6.4 0.00 0.00 0.00
20260830154727 28 312 4.8 4.8 0.00 0.00 0.00
20260830153227 28 321 0.0 9.7 0.00 0.00 0.00
20260830151727 28 52 0.0 0.0 0.00 0.00 0.00
20260830150227 30 349 0.0 0.0 0.00 0.00 0.00
20260830144729 28 349 0.0 0.0 0.00 0.00 0.00
20260830143226 26 349 0.0 0.0 0.00 0.00 0.00
20260830141726 25 349 0.0 0.0 0.00 0.00 0.00
20260830140227 23 349 0.0 0.0 0.00 0.00 0.00
20260830134726 21 349 0.0 0.0 0.00 0.00 0.00
20260830133226 21 349 0.0 0.0 0.00 0.00 0.00
20260830131726 20 349 0.0 0.0 0.00 0.00 0.00
20260830130226 17 349 0.0 0.0 0.00 0.00 0.00
20260830124727 15 349 0.0 0.0 0.00 0.00 0.00
20260830123227 14 349 0.0 0.0 0.00 0.00 0.00
20260830121728 14 349 0.0 0.0 0.00 0.00 0.00
20260830114730 15 96 0.0 0.0 0.00 0.00 0.00
20260830113229 15 96 0.0 0.0 0.00 0.00 0.00
20260830111729 15 96 0.0 0.0 0.00 0.00 0.00
20260830110229 15 96 0.0 0.0 0.00 0.00 0.00
20260830104729 16 96 0.0 0.0 0.00 0.00 0.00
20260830103230 17 96 0.0 0.0 0.00 0.00 0.00